Date String (YYYY-MM-DD hh:mm:ss) UTC,Instrument flags,Ambient pressure (hPa),Sample flow (lpm),Bypass flow (lpm),Sample temperature (°C),Ambient temperature (°C),ASC tube jacket temperature (°C),LED temperature (°C),Box temperature (°C),Sample RH (%),Span deviation,Mass concentration (μg/m³),Mass concentration (μg/m³),Mass concentration (μg/m³)
DateTimeUTC,F1_M11,P_M11,Q1_M11,Q2_M11,T1_M11,T2_M11,T3_M11,T4_M11,T5_M11,U1_M11,ZSPAN_M11,X0_M11,X2_M11,X1_M11
2022-05-13 06:00:00,,0824.6,5.00,0.00,28.6,27.9,00.0,37.6,30.3,07.2,0000.0,0009.44,0002.78,0001.14
2022-05-13 06:01:00,,0824.6,5.00,0.00,28.6,27.9,00.0,37.6,30.3,07.3,0000.0,0009.22,0002.68,0001.13
2022-05-13 06:02:00,,0824.6,5.01,0.00,28.6,27.9,00.0,37.6,30.4,07.2,0000.0,0009.49,0002.63,0001.12
2022-05-13 06:03:00,,0824.6,5.00,0.00,28.6,27.9,00.0,37.6,30.4,07.3,0000.0,0009.62,0002.51,0001.11
2022-05-13 06:04:00,,0824.8,5.00,0.00,28.6,27.9,00.0,37.6,30.5,07.3,0000.0,0009.52,0002.42,0001.11
2022-05-13 06:05:00,,0824.8,5.01,0.00,28.6,28.0,00.0,37.6,30.4,07.3,0000.0,0009.49,0002.43,0001.10
2022-05-13 06:06:00,,0824.8,4.99,0.00,28.6,27.9,00.0,37.6,30.4,07.4,0000.0,0009.30,0002.36,0001.11
2022-05-13 06:07:00,,0824.7,5.00,0.00,28.6,27.9,00.0,37.6,30.3,07.4,0000.0,0008.72,0002.27,0001.10
2022-05-13 06:08:00,,0824.6,5.00,0.00,28.6,27.9,00.0,37.6,30.3,07.4,0000.0,0008.80,0002.38,0001.12
2022-05-13 06:09:00,,0824.6,4.99,0.00,28.6,27.9,00.0,37.6,30.3,07.4,0000.0,0008.37,0002.32,0001.11
2022-05-13 06:10:00,,0824.6,5.00,0.00,28.6,27.8,00.0,37.6,30.3,07.3,0000.0,0007.46,0002.30,0001.11
2022-05-13 06:11:00,,0824.6,5.00,0.00,28.5,27.8,00.0,37.6,30.3,07.4,0000.0,0007.10,0002.30,0001.11
2022-05-13 06:12:00,,0824.7,5.00,0.00,28.5,27.8,00.0,37.6,30.2,07.4,0000.0,0007.50,0002.44,0001.12
2022-05-13 06:13:00,,0824.5,5.00,0.00,28.5,27.7,00.0,37.6,30.2,07.4,0000.0,0007.17,0002.52,0001.13
2022-05-13 06:14:00,,0824.4,5.00,0.00,28.5,27.7,00.0,37.5,30.2,07.4,0000.0,0006.70,0002.58,0001.13
2022-05-13 06:15:00,,0824.4,5.00,0.00,28.5,27.7,00.0,37.5,30.2,07.5,0000.0,0006.68,0002.63,0001.14
2022-05-13 06:16:00,,0824.4,4.99,0.00,28.5,27.7,00.0,37.5,30.2,07.5,0000.0,0006.77,0002.64,0001.15
2022-05-13 06:17:00,,0824.4,5.01,0.00,28.5,27.7,00.0,37.5,30.2,07.4,0000.0,0006.96,0002.68,0001.14
2022-05-13 06:18:00,,0824.4,4.99,0.00,28.5,27.7,00.0,37.5,30.2,07.4,0000.0,0007.05,0002.68,0001.13
2022-05-13 06:19:00,,0824.6,5.00,0.00,28.4,27.7,00.0,37.5,30.2,07.4,0000.0,0006.78,0002.57,0001.11
2022-05-13 06:20:00,,0824.6,5.02,0.00,28.4,27.7,00.0,37.5,30.1,07.3,0000.0,0007.02,0002.54,0001.12
2022-05-13 06:21:00,,0824.6,4.99,0.00,28.4,27.6,00.0,37.5,30.1,07.3,0000.0,0008.22,0002.53,0001.12
2022-05-13 06:22:00,,0824.6,4.99,0.00,28.4,27.6,00.0,37.5,30.1,07.3,0000.0,0008.12,0002.55,0001.13
2022-05-13 06:23:00,,0824.5,5.00,0.00,28.4,27.6,00.0,37.5,30.1,07.4,0000.0,0007.64,0002.41,0001.13
2022-05-13 06:24:00,,0824.6,5.00,0.00,28.4,27.6,00.0,37.5,30.1,07.4,0000.0,0007.47,0002.35,0001.13
2022-05-13 06:25:00,,0824.6,5.00,0.00,28.4,27.6,00.0,37.4,30.2,07.4,0000.0,0007.45,0002.36,0001.12
2022-05-13 06:26:00,,0824.6,5.00,0.00,28.4,27.7,00.0,37.4,30.2,07.4,0000.0,0007.41,0002.33,0001.12
2022-05-13 06:27:00,,0824.6,5.00,0.00,28.4,27.7,00.0,37.4,30.2,07.4,0000.0,0007.29,0002.31,0001.11
2022-05-13 06:28:00,,0824.6,4.99,0.00,28.4,27.8,00.0,37.4,30.3,07.4,0000.0,0007.00,0002.27,0001.11
2022-05-13 06:29:00,,0824.6,4.99,0.00,28.5,27.8,00.0,37.4,30.3,07.4,0000.0,0007.07,0002.27,0001.11
2022-05-13 06:30:00,,0824.6,5.01,0.00,28.5,27.8,00.0,37.4,30.3,07.4,0000.0,0007.20,0002.32,0001.11
2022-05-13 06:31:00,,0824.6,5.00,0.00,28.5,27.8,00.0,37.4,30.3,07.4,0000.0,0007.02,0002.33,0001.11
2022-05-13 06:32:00,,0824.6,4.99,0.00,28.5,27.8,00.0,37.4,30.3,07.4,0000.0,0005.95,0002.30,0001.10
2022-05-13 06:33:00,,0824.6,4.99,0.00,28.5,27.9,00.0,37.4,30.3,07.4,0000.0,0007.25,0002.30,0001.09
2022-05-13 06:34:00,,0824.6,5.00,0.00,28.5,27.9,00.0,37.4,30.3,07.4,0000.0,0007.36,0002.34,0001.08
2022-05-13 06:35:00,,0824.6,4.99,0.00,28.5,27.9,00.0,37.4,30.3,07.5,0000.0,0007.44,0002.36,0001.09
2022-05-13 06:36:00,,0824.6,5.01,0.00,28.5,27.9,00.0,37.4,30.4,07.5,0000.0,0007.65,0002.34,0001.09
2022-05-13 06:37:00,,0824.5,5.00,0.00,28.5,27.9,00.0,37.5,30.3,07.5,0000.0,0007.81,0002.38,0001.09
2022-05-13 06:38:00,,0824.5,4.99,0.00,28.5,27.9,00.0,37.5,30.3,07.5,0000.0,0007.97,0002.46,0001.10
2022-05-13 06:39:00,,0824.6,5.01,0.00,28.5,27.8,00.0,37.5,30.3,07.5,0000.0,0008.09,0002.51,0001.12
2022-05-13 06:40:00,,0824.7,4.99,0.00,28.5,27.8,00.0,37.5,30.3,07.4,0000.0,0008.01,0002.49,0001.13
2022-05-13 06:41:00,,0824.6,4.99,0.00,28.5,27.8,00.0,37.5,30.3,07.4,0000.0,0007.89,0002.44,0001.14
2022-05-13 06:42:00,,0824.6,5.01,0.00,28.5,27.8,00.0,37.5,30.3,07.4,0000.0,0008.41,0002.52,0001.15
2022-05-13 06:43:00,,0824.6,4.99,0.00,28.5,27.9,00.0,37.5,30.3,07.5,0000.0,0008.32,0002.61,0001.16
2022-05-13 06:44:00,,0824.6,5.00,0.00,28.5,27.9,00.0,37.5,30.3,07.5,0000.0,0007.35,0002.60,0001.17
2022-05-13 06:45:00,,0824.6,5.01,0.00,28.5,27.9,00.0,37.5,30.4,07.5,0000.0,0007.28,0002.58,0001.18
2022-05-13 06:46:00,,0824.6,4.98,0.00,28.5,27.9,00.0,37.5,30.4,07.5,0000.0,0007.63,0002.63,0001.18
2022-05-13 06:47:00,,0824.6,5.01,0.00,28.6,27.9,00.0,37.5,30.4,07.5,0000.0,0007.48,0002.63,0001.18
2022-05-13 06:48:00,,0824.6,5.00,0.00,28.6,27.9,00.0,37.5,30.4,07.5,0000.0,0007.40,0002.62,0001.19
2022-05-13 06:49:00,,0824.6,5.00,0.00,28.6,27.9,00.0,37.5,30.4,07.4,0000.0,0007.20,0002.56,0001.18
2022-05-13 06:50:00,,0824.7,5.01,0.00,28.6,27.9,00.0,37.5,30.4,07.4,0000.0,0007.19,0002.52,0001.18
2022-05-13 06:51:00,,0824.7,4.99,0.00,28.6,27.9,00.0,37.5,30.4,07.5,0000.0,0007.34,0002.57,0001.18
2022-05-13 06:52:00,,0824.8,5.01,0.00,28.6,27.9,00.0,37.5,30.5,07.4,0000.0,0008.56,0002.63,0001.19
2022-05-13 06:53:00,,0824.8,4.99,0.00,28.7,28.0,00.0,37.5,30.5,07.4,0000.0,0008.86,0002.63,0001.18
2022-05-13 06:54:00,,0824.6,4.99,0.00,28.7,28.0,00.0,37.5,30.5,07.4,0000.0,0008.75,0002.59,0001.18
2022-05-13 06:55:00,,0824.6,5.01,0.00,28.7,28.0,00.0,37.5,30.5,07.4,0000.0,0009.29,0002.55,0001.16
2022-05-13 06:56:00,,0824.6,4.99,0.00,28.7,28.0,00.0,37.6,30.5,07.4,0000.0,0009.43,0002.60,0001.17
2022-05-13 06:57:00,,0824.6,4.99,0.00,28.7,28.0,00.0,37.6,30.5,07.4,0000.0,0009.32,0002.59,0001.16
2022-05-13 06:58:00,,0824.7,4.99,0.00,28.7,28.0,00.0,37.6,30.5,07.4,0000.0,0009.29,0002.64,0001.17
2022-05-13 06:59:00,,0824.6,5.00,0.00,28.7,27.9,00.0,37.6,30.5,07.3,0000.0,0009.28,0002.68,0001.18
